Location: Iesi
(43.5167°N, 13.2333°E)
Time: 03:12:24
(UTC+00:00)

NOSS 3-2 (C) - Pass Details

Date: 08 August 2020
Orbit: 793 x 1419 km, 63.4° (Epoch: 21 September)

Event Time Altitude Azimuth Distance (km) Brightness Sun altitude
Exits shadow 21:35:59 40° 230° (SW) 1,268 3.9 -26.7°
Maximum altitude 21:38:10 76° 308° (NW) 934 3.4 -26.9°
Drops below altitude 10° 21:44:38 10° 35° (NE) 2,797 6.2 -27.4°
Sets 21:47:27 0° 37° (NE) 3,850 7.0 -27.6°
